COSMOS 2491 DEB *, 45128

Orbit data source: Space-Track

COSMOS 2491 DEB *, 45128 is space debris in LEO originally from a launch on Wed, 25 Dec 2013 UTC launched from the Plesetsk Missile And Space Complex (PKMTR). Debris objects in space refer to the collection of defunct objects orbiting the Earth. Examples of debris include non-operational satellites, rocket bodies, and fragments generated from explosions, collisions, or faulty payload assembly.

Loading next visibility...
Identifier
45128, 2013-076AA
Orbit
LEO
Country
Flag of CISCIS
Related business
Manufacturer
TsNIIKhM
Mission
Spacecraft
Bus & Motor
Unknown
Mass
Unknown
Launch date (UTC)
2013-12-25 (12 years ago)
Launch vehicle
Unknown
Launch site
Plesetsk Missile And Space Complex (PKMTR)
Object type
Payload
Rocket body
Debris
Shape & HBR
Unknown shape, 0.1 m
Radar Cross Section
Small (<0.1 m²)

Expand to show TLE details & history
Last TLE update: 2 days ago

TLE from 2 days ago
0 COSMOS 2491 DEB *
1 45128U 13076AA  25308.05945819  .00010123  00000-0  31903-2 0  9991
2 45128  81.2108 230.7304 0015951 192.0907 167.9900 14.40201978 29605
Epoch: 2025-11-04T01:25Z
TLE epoch observation values (Epoch: 2025-11-04T01:25:37.187Z)
Latitude
-0.00003°
Longitude
165.77353°
Altitude
771.907 km
Speed
7.462 km/s
True Right ascension
15h 22m 55s
True Declination
0° 00' 00"
Sunlit
Object was in daylight at epoch
Visualization orbit readout
Latitude
Unknown
Longitude
Unknown
Altitude
Unknown
Speed
Unknown
Apparent Right ascension
Unknown
Apparent Declination
Unknown
Sunlit
N/A
Visualization observer readout
Local Sidereal Time
04:30:14
Azimuth
Unknown
Elevation
Unknown
Doppler factor
Unknown
Orbital elements
Apogee altitude
766.345 km
Perigee altitude
743.589 km
Semi-major axis
7,133.104 km
Eccentricity
0.0016
Inclination
81.2108°
RAAN
230.7304°
Arg. of periapsis
192.0907°
True anomaly
168.02796°
Mean anomaly
167.99°
Eccentric anomaly
168.00899°
Mean motion
3.60268 °/min
Orbital period
99.93 mins
BSTAR
0.0031903
Loading maneuver chart data...
Computing Atmospheric mass density...
Loading historical data...
Loading historical data...
Loading historical data...
Loading historical data...
Loading historical data...
Loading historical data...
Loading historical data...

Documentation

Showing up to 5 results
|